Location: Winthrop
(48.4780°N, 120.1850°W)
Time: 12:05:10
(UTC-07:00)

LO-87 - Visible Passes

Search period start: 16 May 2022 00:00
Search period end: 26 May 2022 00:00
Orbit: 456 x 473 km, 97.4° (Epoch: 16 May)

Date Brightness Start Highest point End Pass type
(mag) Time Alt. Az. Time Alt. Az. Time Alt. Az.
16 May ? 01:26:44 17° WNW 01:26:44 17° WNW 01:28:32 10° NW visible
16 May ? 23:21:53 16° E 23:22:35 17° ENE 23:24:51 10° NNE visible
17 May ? 00:55:49 37° WNW 00:55:49 37° WNW 00:58:39 10° NNW visible
18 May ? 00:24:53 79° NNE 00:24:53 79° NNE 00:28:12 10° NNW visible
18 May ? 23:53:54 34° E 23:54:11 35° ENE 23:57:22 10° N visible
19 May ? 01:27:50 17° W 01:27:50 17° W 01:29:44 10° NW visible
19 May ? 23:22:55 16° E 23:23:45 17° ENE 23:26:03 10° NNE visible
20 May ? 00:56:51 37° W 00:56:51 37° W 00:59:47 10° NNW visible
21 May ? 00:25:49 86° ENE 00:25:49 86° ENE 00:29:16 10° NNW visible
21 May ? 23:54:46 34° E 23:55:11 35° ENE 23:58:23 10° N visible
22 May ? 01:28:42 17° W 01:28:42 17° W 01:30:41 10° NW visible
22 May ? 23:23:42 15° E 23:24:40 17° ENE 23:26:59 10° NNE visible
23 May ? 00:57:37 37° W 00:57:37 37° W 01:00:42 10° NNW visible
24 May ? 00:26:31 83° SSE 00:26:38 88° ENE 00:30:06 10° NNW visible
24 May ? 23:55:23 33° E 23:55:56 36° ENE 23:59:08 10° N visible
25 May ? 01:29:19 16° W 01:29:19 16° W 01:31:24 10° NW visible
25 May ? 23:24:14 15° E 23:25:20 17° ENE 23:27:40 10° NNE visible
